EW4075 Weather Reports


time (UTC)temp
F
wind
direction
speed
knots
gust
knots
rain 1hr
in
rain 24hr
in
rain mn
in
humidity
%
barometer
mb
20260505124513 70 280 0.9 3.5 0.00 0.00 0.00 52 1012.5
20260505123011 70 355 0.0 3.5 0.00 0.00 0.00 52 1012.4
20260505121509 69 15 0.0 2.6 0.00 0.00 0.00 55 1012.3
20260505120009 67 38 0.0 1.7 0.00 0.00 0.00 59 1012.2
20260505114601 65 90 0.0 2.6 0.00 0.00 0.00 62 1012.2
20260505113055 62 287 0.0 2.6 0.00 0.00 0.00 68 1012.2
20260505111554 60 273 0.0 1.7 0.00 0.00 0.00 70 1012.0
20260505101552 60 263 0.0 0.9 0.00 0.00 0.00 69 1011.5
20260505100046 60 254 0.0 2.6 0.00 0.00 0.00 69 1011.3
20260505094545 59 348 0.0 1.7 0.00 0.00 0.00 69 1011.2
20260505093045 60 309 0.0 1.7 0.00 0.00 0.00 69 1011.1
20260505091543 60 80 0.0 0.9 0.00 0.00 0.00 69 1011.1
20260505090046 60 77 0.0 1.7 0.00 0.00 0.00 68 1011.1
20260505084540 60 109 0.0 1.7 0.00 0.00 0.00 67 1011.0
20260505083038 61 97 0.0 3.5 0.00 0.00 0.00 66 1011.1
20260505081540 61 273 0.0 1.7 0.00 0.00 0.00 65 1011.2
20260505080039 62 273 0.0 1.7 0.00 0.00 0.00 64 1011.1
20260505074534 62 258 0.0 1.7 0.00 0.00 0.00 63 1011.2
20260505073046 62 44 0.0 1.7 0.00 0.00 0.00 62 1011.2
20260505071533 62 294 0.0 2.6 0.00 0.00 0.00 62 1011.1
20260505070032 62 275 0.0 2.6 0.00 0.00 0.00 62 1011.2
20260505064540 62 58 0.0 1.7 0.00 0.00 0.00 61 1011.2
20260505063032 62 66 0.0 1.7 0.00 0.00 0.00 61 1011.2
20260505061545 62 327 0.0 2.6 0.00 0.00 0.00 60 1011.0
20260505060034 62 101 0.9 7.0 0.00 0.00 0.00 60 1011.0
20260505054549 62 65 0.0 2.6 0.00 0.00 0.00 60 1010.9
20260505053031 62 80 0.0 2.6 0.00 0.00 0.00 58 1011.0
20260505051527 62 83 0.0 2.6 0.00 0.00 0.00 57 1011.1
20260505041520 63 90 0.0 1.7 0.00 0.00 0.00 53 1011.2
20260505040018 63 62 0.0 2.6 0.00 0.00 0.00 52 1010.9
20260505034517 63 94 0.0 3.5 0.00 0.00 0.00 51 1010.9
20260505033020 64 88 0.0 3.5 0.00 0.00 0.00 49 1011.0
20260505031536 64 78 0.0 3.5 0.00 0.00 0.00 48 1011.1
20260505030015 64 88 0.0 2.6 0.00 0.00 0.00 47 1011.0
20260505024527 65 80 0.0 1.7 0.00 0.00 0.00 46 1011.0
20260505023014 65 68 0.0 3.5 0.00 0.00 0.00 46 1011.2
20260505021518 65 80 0.0 1.7 0.00 0.00 0.00 47 1011.4
20260505020025 65 118 0.0 1.7 0.00 0.00 0.00 46 1011.4
20260505014512 65 71 0.0 0.9 0.00 0.00 0.00 46 1011.2
20260505013012 65 86 0.0 2.6 0.00 0.00 0.00 45 1011.2
20260505011514 66 65 0.0 1.7 0.00 0.00 0.00 45 1011.1
20260505010011 66 66 0.0 0.9 0.00 0.00 0.00 44 1011.0
20260505004522 67 65 0.0 1.7 0.00 0.00 0.00 43 1010.7
20260505003010 68 65 0.0 0.9 0.00 0.00 0.00 42 1010.7
20260505001510 68 65 0.0 1.7 0.00 0.00 0.00 41 1010.6
20260505000013 69 19 0.0 1.7 0.00 0.00 0.00 40 1010.5
20260504234508 70 118 0.0 2.6 0.00 0.00 0.00 39 1010.5
20260504233008 70 117 0.0 1.7 0.00 0.00 0.00 38 1010.4
20260504231608 71 88 0.0 3.5 0.00 0.00 0.00 37 1010.4
20260504230006 72 108 0.0 2.6 0.00 0.00 0.00 36 1010.4
20260504224508 72 69 0.9 2.6 0.00 0.00 0.00 35 1010.3
20260504223006 73 34 0.0 3.5 0.00 0.00 0.00 35 1010.4
20260504221508 73 67 0.0 3.5 0.00 0.00 0.00 35 1010.6
20260504220003 74 139 0.9 5.2 0.00 0.00 0.00 34 1010.6
20260504214502 74 44 0.9 6.1 0.00 0.00 0.00 34 1010.7
20260504213001 74 89 0.0 5.2 0.00 0.00 0.00 35 1010.7
20260504211616 74 100 0.9 5.2 0.00 0.00 0.00 35 1010.7
20260504210059 74 92 0.9 4.3 0.00 0.00 0.00 35 1010.7
20260504204603 74 62 0.9 5.2 0.00 0.00 0.00 35 1010.8
20260504203110 75 78 0.0 4.3 0.00 0.00 0.00 35 1010.7
20260504201600 75 295 0.9 3.5 0.00 0.00 0.00 36 1011.0
20260504200055 75 121 0.9 5.2 0.00 0.00 0.00 34 1011.0
20260504194554 75 109 0.9 6.1 0.00 0.00 0.00 34 1011.1
20260504193051 75 52 0.0 5.2 0.00 0.00 0.00 35 1011.3
20260504191548 74 41 0.0 3.5 0.00 0.00 0.00 34 1011.5
20260504190045 73 275 0.0 3.5 0.00 0.00 0.00 34 1011.6
20260504184542 73 55 0.9 7.8 0.00 0.00 0.00 36 1011.8
20260504183041 73 84 0.9 3.5 0.00 0.00 0.00 36 1012.0
20260504181538 73 130 0.0 6.1 0.00 0.00 0.00 34 1012.3
20260504180036 72 289 0.9 5.2 0.00 0.00 0.00 36 1012.4
20260504174532 72 254 0.9 7.0 0.00 0.00 0.00 35 1012.7
20260504173029 71 292 1.7 6.1 0.00 0.00 0.00 37 1012.9
20260504171526 70 329 0.0 3.5 0.00 0.00 0.00 37 1013.2